Theta_e
307 300 297 296 300 301 304 305 306 308 308 307 306 303 303 302 303 304 304 299 300 298 298 300 301 300 300 302 304 306 306 304 304 304 304 305 306 307 307 308 312 314 315 321 324 327 327 329 330 330 330 330 331 331 332 331 332 332 332 331 330 332 333 332 332 332 332 330 330 330 331 330 332 332 332 331 333 335 335 336 337 337 336 336 335 334
306 299 299 301 304 304 306 307 307 308 308 305 304 303 302 303 301 303 301 298 299 298 299 302 302 301 302 303 304 305 305 302 303 303 304 305 306 307 308 309 310 312 317 321 323 325 327 328 330 330 330 327 328 329 330 330 330 331 331 331 331 331 331 331 331 331 332 333 332 330 330 331 332 332 331 330 331 333 335 336 337 337 336 337 336 334
298 297 302 304 306 307 308 307 307 306 305 305 303 302 301 301 304 299 298 298 298 296 297 301 297 299 300 302 304 304 304 305 305 305 305 305 306 306 307 309 310 311 312 317 320 323 325 327 329 329 329 329 329 329 329 330 330 331 331 331 331 332 331 331 331 331 331 333 334 333 333 332 332 334 334 333 332 333 334 336 337 336 336 336 336 336
294 298 304 307 307 306 306 307 306 305 306 304 303 301 299 303 300 297 299 298 297 298 298 296 293 295 299 302 303 304 305 306 307 306 306 306 306 306 307 308 308 309 311 312 314 317 320 324 325 327 328 328 329 328 329 329 330 330 330 331 331 332 332 332 332 330 333 334 335 335 335 335 334 332 334 334 334 334 334 334 336 337 336 336 336 336
298 302 307 307 307 306 304 305 304 303 301 305 305 303 302 301 300 301 297 297 297 298 297 296 296 297 300 300 302 304 305 305 306 306 306 307 308 309 311 313 311 308 310 311 311 312 316 319 322 324 326 328 328 328 328 329 329 330 331 331 332 332 332 333 332 332 332 333 333 333 335 335 334 334 333 333 332 332 333 333 334 335 336 336 335 336
300 305 308 305 306 306 305 303 304 304 300 303 305 304 304 304 301 300 297 296 296 295 296 295 291 294 301 301 302 305 305 304 306 305 305 305 306 307 306 308 310 311 311 310 310 312 314 317 320 323 325 326 327 328 329 330 330 330 331 332 332 333 333 332 333 333 332 331 330 330 329 328 328 328 329 328 328 330 330 331 334 335 335 335 335 335
300 306 306 304 304 304 303 302 303 304 301 300 302 306 305 304 302 300 299 299 294 292 293 295 291 290 299 298 301 303 304 305 306 304 304 305 305 306 306 307 307 308 309 310 310 312 312 314 316 319 322 324 325 327 329 330 330 331 331 332 332 332 332 334 334 334 332 331 331 330 329 329 328 327 328 331 332 331 331 333 333 334 335 335 335 334
298 302 305 305 303 302 301 299 304 304 302 299 306 305 305 304 301 300 299 299 298 298 298 294 294 288 289 296 301 301 300 302 304 303 304 304 305 305 306 307 308 309 309 311 311 311 311 312 313 314 318 322 324 327 328 329 330 330 330 331 332 332 332 333 334 334 333 331 331 330 330 329 329 329 329 330 331 332 331 331 332 333 333 334 334 333
300 298 301 301 302 300 300 303 305 305 302 301 303 305 303 303 302 302 300 299 297 294 292 294 295 289 290 296 300 301 298 299 300 302 303 304 305 305 306 307 308 309 311 311 312 312 311 311 312 312 313 316 320 323 326 328 329 330 331 331 332 332 332 332 334 333 333 331 331 331 330 329 329 330 330 330 330 330 331 330 331 331 332 332 333 333
300 302 302 304 301 298 304 306 307 305 301 300 305 306 305 304 302 301 299 298 297 291 288 295 294 288 290 297 299 300 298 298 300 303 304 305 305 305 306 307 308 309 311 311 311 312 312 312 313 313 313 312 315 319 323 325 327 329 330 330 330 331 332 332 332 332 333 333 330 330 330 329 329 328 329 329 329 329 330 329 330 330 330 331 331 332
299 302 305 304 301 304 305 307 307 305 304 304 304 301 300 301 300 299 300 296 293 287 290 296 295 292 286 295 297 298 299 299 301 303 306 308 308 307 307 307 308 308 310 311 311 310 309 310 311 312 310 310 312 316 318 320 322 325 327 328 328 329 330 331 331 332 332 332 331 329 329 329 328 329 328 326 327 328 328 328 329 329 329 330 330 331
297 299 300 303 303 307 306 300 304 305 303 304 301 299 298 295 298 295 292 294 287 287 292 296 296 293 286 292 298 302 299 302 303 303 304 306 307 309 308 308 308 308 306 306 306 306 307 306 307 307 306 307 308 310 311 313 316 318 321 324 324 326 327 329 330 331 331 331 331 330 329 328 329 329 328 326 326 327 327 328 328 329 329 329 330 331
293 295 302 300 302 303 302 300 299 301 301 301 300 298 292 288 288 287 289 284 285 286 289 291 295 290 289 296 300 300 301 302 302 303 304 305 306 307 309 310 307 305 304 304 305 307 308 307 308 307 306 306 306 307 308 309 312 314 317 320 321 322 325 326 329 329 329 329 329 329 329 328 329 329 329 328 327 328 327 328 327 327 327 328 328 329
291 297 295 298 300 302 304 297 293 291 294 296 295 294 290 285 284 283 286 288 289 290 290 290 292 287 294 297 300 299 302 304 304 304 305 305 306 305 305 305 304 306 305 306 307 308 309 310 311 311 311 310 309 308 308 308 309 312 314 316 318 319 323 325 326 328 328 328 328 329 328 328 328 328 329 328 328 328 328 328 327 327 327 327 328 329
285 286 292 296 293 302 303 303 299 295 293 296 300 297 293 290 287 283 287 284 285 287 286 292 289 288 290 293 298 299 301 302 302 302 303 303 303 304 305 305 305 306 306 308 308 308 307 307 308 310 310 310 309 309 308 308 308 309 311 314 315 317 320 323 325 326 327 327 327 327 328 327 327 328 327 328 328 328 327 327 327 327 328 328 328 329
291 289 294 300 300 302 300 306 302 298 296 298 300 302 296 292 298 288 287 289 287 286 284 285 288 295 296 299 301 301 301 301 302 301 302 302 302 304 303 304 304 305 307 309 308 307 306 306 306 308 309 310 309 309 309 308 308 309 310 311 313 315 317 320 323 325 326 326 326 327 326 326 327 326 327 327 328 328 329 328 327 327 328 328 329 329
293 289 293 297 298 301 302 305 301 303 289 296 297 292 296 301 299 291 287 289 287 288 287 289 288 293 299 299 301 301 300 301 301 301 301 301 302 303 303 305 305 306 308 308 309 307 307 306 307 307 307 308 309 310 310 309 309 308 309 310 311 313 316 318 321 323 325 325 324 325 325 326 326 326 326 326 327 328 329 329 328 327 327 329 329 329
292 287 291 294 292 300 298 302 303 304 303 298 291 296 301 302 299 292 287 287 286 285 287 289 288 291 291 290 302 300 299 301 301 301 301 302 303 302 304 307 308 309 309 307 306 305 306 306 306 308 308 308 309 309 308 307 308 309 310 310 310 311 313 315 318 320 321 322 322 323 324 324 325 325 326 326 327 328 328 328 328 328 327 328 328 328
298 284 288 291 295 296 299 301 299 303 300 298 296 306 294 288 287 292 289 283 282 283 286 289 289 290 293 294 295 297 299 300 302 303 303 301 301 302 303 304 306 308 306 305 306 306 307 307 306 306 307 307 306 306 306 307 306 307 308 311 313 313 314 315 318 319 321 322 323 323 323 323 324 325 325 326 327 327 327 328 328 328 328 328 327 325
300 288 286 292 294 295 296 298 289 294 298 298 299 297 302 296 293 289 289 289 289 285 285 286 287 287 295 296 299 297 298 299 300 301 302 303 303 302 303 305 306 308 306 306 305 306 306 305 306 307 307 307 307 306 305 305 306 306 307 307 308 311 314 316 318 318 317 318 319 321 322 323 324 324 325 326 326 326 326 326 325 325 324 324 325 324
295 297 283 288 294 295 288 293 292 295 291 291 293 292 294 294 295 294 295 290 288 286 287 287 286 290 298 300 301 300 300 300 301 302 303 304 305 305 305 306 306 306 306 306 305 304 304 305 306 307 308 308 306 305 305 305 306 307 307 306 307 308 309 310 313 316 315 315 316 317 318 320 322 323 324 324 325 324 324 325 323 323 324 322 320 319
291 294 285 286 287 288 291 297 298 299 297 294 293 292 294 291 288 286 285 295 290 287 286 287 285 291 297 301 302 303 304 304 305 304 304 305 304 304 305 306 305 305 305 305 304 303 303 303 306 308 307 306 305 304 303 304 305 306 307 308 308 308 309 309 310 310 312 313 314 315 316 317 319 320 321 321 321 320 321 321 320 320 319 318 315 314
299 296 288 285 287 289 294 293 296 293 298 298 296 294 297 295 294 289 285 287 288 289 287 286 284 288 300 300 302 302 303 302 303 303 303 303 304 303 305 306 305 305 304 304 303 304 303 303 306 307 307 307 306 307 306 306 306 307 308 308 308 308 309 309 310 310 310 310 310 311 313 314 316 317 317 318 318 317 318 318 317 316 316 314 311 309
296 288 286 287 290 291 293 295 294 295 296 296 296 298 297 293 294 292 291 291 287 288 286 287 284 289 298 301 301 302 302 301 300 299 300 301 301 302 302 305 305 306 306 306 305 304 304 304 305 304 304 306 306 306 307 307 307 307 307 307 307 307 308 308 308 309 309 309 309 310 310 311 313 314 313 314 314 314 315 313 312 310 312 311 308 307
292 291 289 283 282 285 288 291 291 294 294 292 293 295 297 298 297 295 289 290 287 289 288 288 283 290 299 298 298 298 299 299 297 298 298 299 302 304 303 304 305 305 306 305 305 306 305 304 303 304 306 308 309 308 308 307 307 306 306 306 306 307 308 308 309 309 308 308 308 308 309 309 310 311 310 311 310 310 309 307 306 305 308 306 305 306
294 291 288 282 278 276 276 278 281 284 287 291 294 295 296 296 295 290 286 289 285 289 290 287 288 295 296 296 296 297 298 297 298 298 298 301 302 303 304 305 304 305 306 305 305 307 305 305 306 307 307 309 309 309 308 307 307 306 306 306 307 306 307 308 308 307 306 306 306 306 306 307 308 308 309 308 307 306 305 304 304 304 303 304 305 302
292 294 292 290 286 284 286 289 293 293 290 286 289 292 293 295 297 295 292 289 286 289 288 290 292 294 292 294 294 297 296 296 298 297 298 300 300 302 303 304 305 305 305 304 306 308 307 306 306 307 307 308 308 308 307 307 306 306 305 305 306 306 306 307 307 306 305 305 305 304 305 306 306 307 307 306 305 304 302 302 299 299 300 298 300 299
289 289 292 293 292 292 293 292 293 293 289 290 289 290 293 292 292 291 289 287 293 289 286 293 294 292 294 294 296 297 297 298 299 298 298 300 301 304 305 305 301 302 305 307 307 306 306 308 309 308 308 307 307 306 306 306 307 306 305 305 305 305 305 306 306 306 305 305 304 304 304 305 304 303 303 302 301 299 298 297 295 296 295 294 295 295
291 288 292 293 292 294 295 295 294 293 293 292 291 290 290 292 291 288 289 293 295 289 288 294 296 293 296 296 297 298 299 298 299 299 300 301 302 302 301 301 303 305 306 308 308 310 309 309 311 311 309 308 306 304 304 304 304 305 306 306 306 305 304 305 305 305 305 305 303 304 304 303 301 300 298 296 297 296 295 294 293 292 292 293 293 295
294 290 293 293 291 293 292 294 294 292 292 292 291 291 292 292 292 292 292 293 294 293 295 296 297 296 298 299 299 299 301 301 298 299 298 298 299 301 301 302 305 306 306 306 307 310 310 310 311 313 310 306 305 305 304 304 303 304 304 304 305 305 304 304 304 304 305 304 304 305 303 298 298 298 296 296 295 293 292 292 292 292 292 292 292 292
295 290 294 293 290 289 291 293 294 293 292 290 291 292 292 292 292 293 293 293 294 294 295 295 295 295 300 302 302 302 301 302 298 297 297 299 300 301 302 303 304 305 307 309 308 308 311 311 311 310 308 307 305 305 305 305 305 304 304 304 304 304 304 304 303 303 304 304 304 303 299 297 295 294 293 295 295 294 292 292 292 291 291 291 291 291
296 292 295 292 288 287 289 289 291 292 291 290 290 291 291 291 289 291 290 294 292 291 293 293 292 293 299 302 302 301 301 299 299 300 300 299 299 299 300 300 302 303 305 307 307 308 307 307 310 309 309 310 309 307 305 305 304 303 303 304 304 304 304 303 303 303 303 303 304 302 298 296 294 293 293 293 293 293 293 292 292 291 291 290 290 289
293 291 291 290 287 287 289 290 289 288 287 285 287 290 292 292 293 294 295 296 295 295 292 288 290 297 300 300 299 299 299 299 299 299 301 302 303 302 302 303 304 304 304 305 305 305 307 307 307 307 307 309 311 308 306 305 304 303 303 303 304 304 302 301 301 302 302 300 299 299 298 296 295 294 294 293 293 293 291 289 289 290 289 289 289 290
294 292 290 292 286 285 286 287 288 285 279 281 292 297 295 292 293 292 292 294 296 296 295 297 298 300 300 300 299 299 299 299 300 302 304 304 304 304 304 303 303 304 304 304 306 306 307 307 307 306 307 309 309 306 306 305 304 304 303 303 303 302 301 300 300 301 300 298 297 297 297 297 296 294 294 293 292 292 291 289 289 289 290 289 288 288
290 290 290 290 288 283 285 286 282 277 280 292 299 298 298 297 296 294 295 296 296 297 297 297 298 299 300 300 300 301 301 302 302 302 302 304 304 303 303 303 304 304 304 305 305 304 304 305 306 307 305 304 303 304 303 302 302 302 300 301 300 300 301 300 300 300 299 298 298 297 295 295 295 294 293 292 290 289 289 290 289 288 288 287 287 287
289 289 289 288 288 286 283 283 277 278 288 294 294 296 298 298 297 296 293 296 297 297 298 296 298 299 300 300 300 302 302 301 302 302 303 303 304 304 303 303 305 305 304 304 304 304 304 305 304 303 303 305 304 303 302 302 301 299 299 299 299 299 299 299 298 299 299 298 297 296 295 294 294 294 294 291 289 288 288 288 288 287 288 287 288 287
293 291 290 286 288 281 282 283 283 291 289 291 291 292 295 292 293 292 287 292 297 299 299 298 298 299 300 300 300 298 299 299 299 300 302 303 304 305 305 304 305 305 306 306 306 306 307 306 304 303 304 303 303 303 302 301 299 298 297 297 298 297 297 297 297 298 298 297 298 296 295 294 293 292 292 290 289 288 288 288 288 287 287 287 287 286
295 290 291 287 284 288 283 281 283 283 280 287 294 297 299 300 299 298 293 290 299 299 300 299 298 299 300 300 297 298 300 300 294 296 301 302 303 304 304 306 305 305 305 305 307 303 301 301 300 301 302 300 300 301 300 299 297 297 296 295 296 296 296 295 296 297 297 297 297 296 295 295 294 290 289 288 288 288 288 288 288 287 287 287 287 286
292 294 291 289 285 286 284 281 280 280 284 292 295 298 299 300 302 300 292 287 296 299 300 300 299 299 300 299 296 298 296 291 293 297 301 303 303 304 303 304 304 303 303 302 302 299 298 298 298 298 298 299 298 299 298 297 296 296 295 295 295 295 295 294 295 295 296 297 297 296 296 295 293 291 289 289 288 288 288 287 287 287 286 287 287 286
287 289 288 286 283 285 285 282 281 286 286 292 296 297 299 301 301 294 283 284 296 300 300 300 299 299 300 299 298 297 294 291 293 298 302 304 304 304 303 303 302 301 300 300 300 299 298 297 295 295 295 296 297 297 295 295 295 293 295 294 295 294 294 295 295 296 297 297 297 296 295 295 290 290 289 288 288 288 288 287 286 286 286 286 286 286
285 286 287 284 285 285 286 285 287 288 294 298 298 299 300 301 297 286 281 291 299 300 301 301 300 300 300 299 298 295 297 299 300 300 299 301 300 300 299 299 300 300 300 297 297 294 296 296 296 295 295 296 297 295 295 294 294 293 294 294 293 292 294 295 296 296 296 297 297 295 294 293 290 288 288 288 288 288 287 287 286 286 286 286 286 286
285 286 285 287 285 284 286 285 286 290 296 297 297 300 300 295 285 285 295 300 302 300 301 302 301 301 301 300 299 299 300 301 301 296 298 298 300 298 296 295 294 293 293 292 292 293 295 294 294 294 294 294 294 294 293 293 293 293 293 293 293 294 294 295 295 295 296 296 295 292 290 290 289 288 288 287 288 287 286 286 286 286 285 286 285 285
285 284 282 283 286 286 286 284 284 281 291 298 297 296 297 291 291 297 296 296 298 302 300 300 302 301 301 300 301 301 300 300 300 298 297 297 297 296 294 294 294 294 293 291 290 292 294 293 293 293 293 292 292 292 292 291 290 290 290 292 291 293 293 293 293 294 294 292 292 289 288 288 288 287 287 287 287 286 286 285 285 285 285 285 285 284
291 285 284 286 290 283 283 282 283 291 295 298 297 291 295 299 299 301 300 298 299 299 298 300 300 301 301 301 300 300 300 299 299 298 297 296 296 295 295 294 295 294 294 294 294 292 293 294 293 292 291 291 291 291 290 289 289 289 289 290 292 291 291 291 291 290 288 288 288 287 287 287 286 287 287 287 286 286 285 284 284 284 284 284 284 283
291 288 290 286 291 288 286 289 294 293 298 300 300 300 299 301 302 300 305 300 297 296 299 299 299 299 300 301 300 299 299 299 299 299 298 296 295 294 294 294 294 294 293 293 292 291 292 294 292 291 290 290 289 290 288 288 288 287 288 289 289 288 288 288 287 287 287 286 286 286 286 286 286 286 286 286 286 286 285 284 284 284 283 283 283 283
294 294 293 294 291 294 294 293 294 289 291 297 300 300 300 301 301 298 300 298 298 299 297 299 299 299 299 300 299 298 298 299 298 297 296 296 295 295 294 294 293 293 292 291 289 289 290 291 289 289 288 288 288 288 287 288 287 286 288 289 288 288 287 286 286 285 285 285 285 285 285 284 284 284 285 285 286 286 286 285 284 284 283 283 283 283
294 295 293 290 293 291 286 296 294 293 294 296 298 300 300 300 301 298 295 299 300 298 296 298 299 299 298 298 299 298 298 298 297 297 295 295 295 294 294 293 292 291 291 290 290 287 288 288 288 288 287 286 286 286 286 286 287 287 287 286 286 286 285 285 285 285 285 285 285 284 283 284 285 284 283 283 285 286 286 286 285 284 283 283 282 282
289 297 292 292 291 290 291 295 297 296 295 297 298 297 296 297 299 296 298 297 298 297 296 297 294 294 295 296 298 298 297 297 296 295 294 294 294 293 293 293 292 291 291 290 287 287 288 288 288 287 287 286 286 286 285 286 285 284 284 285 285 285 285 285 285 285 284 284 284 284 283 284 281 283 284 283 283 284 285 285 284 284 284 283 283 283
293 294 288 292 291 293 296 297 297 296 293 294 296 297 300 300 299 297 295 293 292 292 291 290 291 293 294 296 296 296 295 294 295 294 294 293 292 292 292 293 292 290 288 287 286 286 288 288 287 287 286 285 285 285 284 283 282 282 282 283 283 284 285 284 283 283 282 283 283 283 283 284 283 283 284 283 282 283 284 284 284 284 284 284 285 284
292 288 293 292 289 289 290 293 295 290 289 293 294 297 297 296 297 297 296 294 292 290 290 289 288 290 291 292 294 295 294 294 293 294 293 293 292 292 291 291 290 288 287 287 286 286 286 286 286 286 285 284 284 284 283 281 280 280 280 281 282 284 284 283 283 283 282 282 283 282 282 282 282 282 282 282 282 281 281 281 282 283 283 283 284 284
292 292 293 289 289 289 294 297 298 297 297 298 297 297 296 295 294 294 294 294 292 291 291 290 289 289 290 290 292 293 294 293 293 294 292 292 292 291 290 289 288 286 285 285 284 285 285 285 284 284 283 283 282 282 281 279 279 279 279 279 280 282 283 283 284 284 283 282 282 282 282 282 282 281 281 281 281 281 281 281 281 282 281 282 282 283
Wind_Speed
6 9 10 10 10 11 11 14 14 14 9 10 7 7 9 8 6 3 3 6 4 3 10 12 13 13 12 10 11 12 8 8 8 10 10 9 8 8 8 8 9 9 9 7 9 9 12 13 12 12 11 11 12 12 13 14 15 14 13 12 14 13 14 12 11 12 10 10 10 10 12 11 10 7 7 8 8 8 9 8 9 9 8 9 9 9
8 10 11 10 13 15 15 16 16 13 7 9 7 7 7 7 8 5 7 6 4 5 7 12 13 14 13 11 12 12 11 10 11 11 11 11 11 9 9 10 9 8 5 6 7 10 11 11 13 12 11 12 14 14 15 16 16 15 15 15 14 13 14 15 15 13 12 12 11 10 10 10 10 8 8 10 9 9 9 9 9 10 10 10 10 9
10 14 11 12 12 14 14 15 13 14 11 9 7 6 7 7 6 4 3 5 5 5 8 9 10 12 13 13 13 14 14 13 11 12 12 12 11 10 9 9 8 7 8 8 9 10 11 12 13 12 12 12 15 15 16 15 14 15 15 15 14 13 13 12 13 12 13 12 11 11 9 11 9 10 10 10 9 9 10 11 12 12 12 11 10 10
11 10 15 14 12 14 14 13 13 14 12 10 8 8 9 6 8 6 9 7 7 6 4 4 7 10 13 13 14 14 15 14 13 11 12 11 11 11 11 9 8 9 9 10 10 12 12 12 12 12 12 13 13 13 13 14 16 14 14 14 15 13 13 12 13 12 13 12 12 12 11 10 10 9 9 9 9 10 12 12 11 11 11 11 11 10
7 7 14 16 16 17 16 15 16 14 12 12 13 10 8 7 8 7 3 5 4 7 4 8 10 12 12 14 13 14 16 16 15 13 12 10 9 9 7 4 7 10 9 9 10 10 11 12 13 15 14 12 12 13 14 14 15 12 17 16 16 14 14 13 13 14 12 11 11 11 9 9 9 9 9 10 10 11 10 10 11 13 11 12 12 11
7 12 14 16 16 16 16 14 17 13 11 12 14 12 10 5 7 5 4 3 4 5 5 4 5 6 7 15 16 11 12 16 15 16 14 12 11 10 11 11 10 8 9 10 10 10 11 12 12 12 12 12 12 13 14 14 16 15 13 14 15 14 13 14 15 15 13 12 13 12 12 12 12 12 12 12 13 11 12 12 10 12 13 13 12 12
6 15 16 17 15 14 15 13 14 15 13 12 12 12 12 7 3 4 4 2 4 6 4 4 5 6 3 4 3 7 11 15 13 14 15 13 13 12 11 11 10 11 10 10 11 9 9 11 11 12 13 14 14 15 12 12 13 14 13 14 15 14 12 13 14 16 13 14 12 14 15 13 13 14 12 12 11 11 11 10 11 11 11 12 11 11
6 13 18 16 16 15 13 13 13 16 12 10 3 11 13 9 6 5 5 5 6 5 4 4 4 7 10 7 8 6 9 10 12 12 12 12 13 14 13 13 12 11 10 9 11 12 12 11 11 12 13 12 12 9 9 11 11 14 15 13 14 13 12 12 13 15 15 14 13 14 14 12 12 12 11 11 11 11 10 11 10 9 10 8 9 11
15 13 14 17 15 13 15 13 12 17 12 2 3 8 8 7 6 4 4 6 2 6 6 4 3 4 8 2 4 9 10 12 14 15 14 14 14 14 13 13 13 13 12 11 9 10 11 11 11 11 10 10 10 9 10 10 10 11 12 13 13 14 14 13 15 14 16 14 13 13 12 12 11 11 10 9 8 10 11 13 11 11 11 10 11 11
4 13 15 14 13 14 10 11 14 16 14 2 3 6 3 3 2 2 4 5 4 3 8 6 6 5 11 9 8 8 11 13 13 14 15 15 15 14 14 14 13 12 10 10 10 9 9 9 9 9 8 8 8 7 8 9 8 9 10 12 14 15 12 12 14 14 15 15 12 12 13 13 11 10 9 10 10 11 11 13 13 12 11 10 11 12
5 5 5 11 13 10 10 10 10 14 4 11 10 9 7 3 3 1 2 2 3 10 9 8 7 5 8 5 6 7 9 9 8 10 11 13 14 14 13 13 11 10 7 4 5 4 4 4 5 5 7 8 7 5 7 8 8 8 10 11 14 14 11 11 13 14 15 14 13 13 13 13 13 12 12 11 12 12 12 13 12 12 12 11 11 10
6 7 6 3 2 7 10 10 6 7 11 12 6 8 7 3 2 2 1 1 5 8 1 7 10 11 9 3 4 5 4 5 8 10 10 10 11 12 9 9 9 6 5 4 4 5 5 5 6 6 7 8 8 7 8 8 8 9 10 10 13 13 13 11 11 13 13 13 14 13 14 14 13 13 11 13 13 13 13 12 12 11 11 11 10 10
8 10 6 6 3 8 11 10 4 6 4 7 8 8 7 3 2 4 4 5 9 8 2 2 5 7 19 12 8 6 6 6 8 7 7 6 7 9 8 2 5 3 3 3 4 4 5 5 6 7 7 7 8 8 8 8 8 8 9 11 12 13 13 12 12 13 14 13 14 13 13 14 12 13 13 12 12 11 11 10 10 12 11 10 11 11
4 2 2 4 5 8 13 12 9 5 6 8 10 9 7 7 5 8 8 4 4 3 4 5 2 10 7 7 14 20 18 15 13 12 12 13 11 5 1 0 1 3 4 5 5 5 6 6 6 6 6 7 6 7 7 7 8 8 8 10 11 12 10 11 12 12 13 14 13 13 12 11 10 12 12 13 11 11 10 9 11 13 12 11 13 11
7 5 10 13 8 11 14 12 11 7 8 8 4 8 6 6 4 9 7 9 2 1 4 4 2 5 3 1 3 6 3 3 3 4 3 3 4 6 4 3 5 5 6 6 6 7 7 7 7 7 6 6 6 6 6 6 8 7 8 9 11 10 10 11 12 11 13 12 12 11 11 10 9 10 11 13 12 11 11 10 11 12 11 12 11 9
12 2 2 13 3 16 12 11 12 14 9 10 9 7 10 12 5 3 2 2 1 2 4 6 6 3 4 6 5 6 7 8 7 6 6 7 5 4 6 5 5 6 6 5 5 6 7 6 6 5 5 5 5 7 6 7 7 7 8 8 10 11 10 11 11 11 11 11 10 11 11 11 10 8 9 10 9 10 10 10 11 11 11 10 9 8
10 9 3 9 3 16 15 12 13 17 8 11 10 13 10 5 7 3 1 2 2 3 10 6 5 7 8 11 13 9 9 8 9 9 7 7 6 5 6 6 5 5 4 3 2 3 3 4 5 4 4 3 4 4 5 6 6 7 7 7 9 9 8 9 10 10 10 10 10 10 10 10 10 11 11 11 11 10 9 9 9 10 9 8 8 7
12 7 3 8 10 7 4 4 10 13 1 10 10 11 6 4 6 3 6 3 3 8 5 6 8 4 3 6 9 16 13 12 10 9 8 8 7 6 6 5 5 4 3 2 3 4 4 4 4 4 3 3 3 3 3 4 3 3 5 7 8 8 9 9 9 9 9 9 9 9 10 10 10 11 11 11 11 9 8 9 8 8 7 7 6 6
11 7 3 5 7 5 2 4 9 4 4 5 8 7 9 6 7 8 1 6 5 8 5 6 9 10 9 9 4 9 14 14 13 11 10 9 7 7 5 5 4 3 2 3 3 2 2 2 3 4 4 4 3 3 2 2 3 4 4 4 4 6 7 8 7 7 6 7 5 5 8 9 10 11 10 10 9 8 7 8 6 7 5 5 7 6
8 5 5 1 4 6 5 10 11 12 3 2 3 7 9 4 7 7 9 2 0 8 3 3 7 8 10 11 8 7 10 9 8 10 12 13 9 7 5 4 3 2 2 2 2 2 2 1 1 2 4 5 5 4 3 2 1 1 1 2 2 2 1 3 6 6 6 5 6 4 3 4 5 7 8 7 8 9 8 7 7 8 6 7 6 7
9 5 6 6 3 10 9 10 14 15 14 9 9 10 8 5 3 4 3 8 4 4 6 7 7 5 4 9 12 11 9 9 7 5 5 6 6 6 4 3 2 2 3 2 2 2 2 2 2 3 2 3 3 2 2 1 0 1 1 0 1 3 4 4 4 5 6 7 9 9 8 8 7 8 7 9 9 9 9 8 8 8 8 6 7 7
3 9 10 11 8 10 8 8 1 9 15 12 12 12 11 9 5 8 9 6 5 5 5 5 10 1 4 4 9 11 9 8 6 6 6 5 6 5 3 3 2 3 3 3 2 2 2 1 1 2 3 2 2 2 2 3 2 2 2 2 2 2 2 3 4 4 4 6 7 10 10 10 7 7 8 9 9 8 7 7 6 7 6 8 7 7
3 5 11 8 10 9 5 4 2 4 5 11 10 11 11 10 8 5 9 7 2 6 3 2 6 3 5 5 5 6 5 3 2 0 3 1 2 2 2 2 1 3 3 2 1 1 1 1 1 1 2 3 4 4 4 4 3 3 3 3 3 3 3 3 4 4 5 5 6 7 8 9 8 7 7 9 8 8 8 7 6 6 8 7 6 6
8 4 10 8 7 6 7 2 2 3 2 9 12 11 13 16 18 14 5 2 5 4 5 7 8 4 3 1 2 3 4 5 3 2 1 2 2 2 2 1 3 2 0 1 1 1 1 1 1 2 4 4 4 4 5 4 4 3 4 5 5 6 6 6 5 5 5 5 6 6 6 7 8 7 6 7 6 7 6 6 6 5 7 7 6 8
9 7 11 8 5 3 4 4 5 3 4 9 14 16 15 12 13 6 2 0 3 7 5 6 14 7 6 1 0 2 1 3 1 2 1 2 3 3 2 1 1 2 1 0 1 1 2 3 4 5 5 5 5 5 5 5 5 5 5 6 6 6 6 6 6 6 6 7 7 7 7 7 7 7 6 5 4 5 4 4 5 5 6 6 7 7
1 9 10 12 15 15 13 15 16 17 20 11 9 10 12 12 17 6 5 5 7 4 9 8 12 9 2 2 3 5 6 4 2 2 2 4 4 1 1 1 2 1 1 1 0 2 3 4 4 5 5 4 5 5 5 5 5 5 5 7 7 7 6 7 6 6 6 6 7 7 8 8 7 7 6 5 3 3 3 3 4 4 4 5 7 6
3 6 7 8 12 12 9 3 8 11 8 9 13 15 14 8 11 8 4 8 13 8 8 11 14 12 4 6 6 8 6 6 5 4 5 5 4 4 3 2 1 1 1 2 1 2 1 3 5 6 5 5 5 5 5 6 6 6 6 7 8 7 6 6 6 6 6 6 6 6 6 6 6 5 5 4 3 3 3 3 2 3 3 3 4 6
3 7 10 10 13 9 7 4 10 15 13 15 15 13 13 18 13 10 11 15 16 6 12 15 22 19 11 8 10 11 9 7 7 6 5 4 3 2 3 2 2 3 3 2 3 4 5 4 4 5 6 6 5 5 5 6 6 7 7 7 6 7 6 5 6 6 5 5 5 5 5 4 4 3 2 1 1 1 0 0 1 1 1 2 3 4
8 10 12 15 15 10 5 9 14 13 16 16 17 16 16 17 18 16 19 19 13 13 18 16 13 18 17 9 10 10 10 10 10 8 6 2 3 4 2 3 5 5 4 4 5 5 5 5 4 4 5 5 5 6 6 6 6 6 6 5 5 6 7 6 6 5 5 5 5 5 4 3 0 0 0 1 2 1 2 2 2 2 2 3 3 3
8 10 11 15 13 13 5 9 14 15 12 15 19 21 21 21 21 21 21 21 18 18 21 14 8 19 13 13 9 8 7 7 4 4 3 3 4 4 4 5 5 5 5 6 6 5 6 6 5 4 4 3 5 6 6 6 6 7 6 6 6 6 6 6 7 7 6 5 5 4 3 1 1 1 1 2 3 2 2 2 3 3 3 3 3 3
12 11 15 13 11 11 8 4 11 14 14 14 17 20 21 20 21 23 22 24 22 22 23 20 18 17 8 7 11 10 6 5 5 5 5 4 2 3 5 6 6 5 5 6 6 6 6 5 5 4 4 5 6 7 6 5 4 4 5 6 6 6 6 7 7 6 6 6 5 4 3 3 3 3 3 3 3 2 3 4 4 3 3 3 3 3
15 6 12 10 12 11 8 8 5 3 9 14 15 17 20 22 21 22 22 19 13 17 22 21 17 20 9 10 9 10 7 3 7 7 7 7 8 9 9 9 9 9 9 8 10 9 8 7 5 5 5 6 6 5 4 4 4 4 5 5 6 6 5 6 7 7 5 5 4 5 4 3 3 3 3 2 3 3 3 3 3 3 4 4 4 4
11 4 7 11 12 9 9 9 7 5 4 5 14 21 27 27 23 18 16 15 18 23 18 15 22 14 7 12 14 14 14 14 13 10 9 9 10 10 10 9 9 10 11 11 13 13 9 5 4 4 5 4 2 3 5 5 5 5 5 5 5 5 5 6 6 7 7 4 4 4 3 4 3 3 3 3 3 2 2 2 2 3 3 3 3 4
13 11 5 10 8 4 8 8 6 5 12 16 18 20 21 20 20 16 18 23 23 19 17 20 15 5 12 12 15 14 18 19 16 13 10 7 7 8 9 13 15 15 15 14 11 9 6 4 5 5 5 3 1 3 4 5 5 4 4 5 5 6 6 6 7 7 5 4 4 3 4 3 3 3 2 2 1 2 2 1 2 2 2 2 2 4
15 13 7 6 7 5 6 10 7 13 16 17 4 10 18 19 21 25 22 22 23 26 26 23 19 13 7 13 13 15 14 14 12 13 13 13 13 15 19 20 19 18 12 8 7 8 8 9 6 3 4 5 5 5 5 5 5 5 5 5 6 5 6 6 6 7 5 4 4 4 2 3 3 3 3 3 1 1 1 1 1 1 2 2 3 3
15 15 8 7 3 4 5 9 9 15 10 4 5 11 15 18 23 19 22 26 29 25 23 23 23 19 11 12 12 9 9 8 8 11 14 16 17 18 17 18 18 11 9 9 11 11 9 8 7 7 5 3 5 5 5 6 6 6 5 5 5 5 5 6 6 7 5 5 5 5 4 4 4 3 4 4 3 3 3 2 2 3 2 2 2 1
19 13 11 9 6 11 8 12 17 1 2 3 5 9 17 21 19 18 17 22 21 17 18 22 23 19 17 9 6 7 5 2 4 10 17 18 17 18 20 21 16 11 9 8 8 9 6 5 6 5 4 4 5 6 5 5 5 5 5 5 4 5 5 5 6 6 6 6 5 5 5 5 5 4 4 3 3 3 3 4 3 2 2 3 3 3
5 15 11 12 8 8 11 7 4 8 12 13 24 18 13 6 13 20 18 20 10 20 24 23 20 20 20 11 8 9 6 1 7 16 18 19 19 18 20 12 9 9 9 8 2 2 3 3 3 3 5 5 4 2 4 5 5 6 5 5 5 5 5 5 6 6 5 5 4 5 5 5 6 4 4 3 4 4 3 3 2 3 2 4 4 5
3 1 7 15 6 8 7 8 9 11 17 25 13 13 16 14 6 7 4 19 20 19 19 21 22 17 19 15 13 10 6 5 13 17 22 13 16 18 18 13 12 13 11 8 8 7 5 5 5 4 3 3 5 4 4 5 6 6 5 5 5 5 5 5 6 6 6 6 5 5 5 5 4 4 4 5 5 5 4 4 3 1 2 2 2 2
4 7 3 6 5 8 9 9 11 6 17 14 12 14 18 15 13 12 6 15 31 14 16 20 20 17 19 11 15 13 12 16 14 21 19 8 11 10 14 14 12 10 8 4 3 4 5 6 6 5 6 7 5 6 6 7 6 5 5 5 5 5 5 5 5 5 5 4 4 4 4 3 3 2 3 3 3 3 4 2 2 3 3 1 1 1
8 5 7 13 10 11 13 6 5 7 15 3 12 16 19 18 17 12 15 27 4 18 19 19 21 20 17 16 16 12 20 23 26 7 10 7 7 5 3 3 2 3 4 6 7 7 6 6 7 8 7 5 5 6 6 6 6 5 4 5 4 3 3 2 4 5 5 5 4 3 4 3 3 3 3 3 3 2 2 2 3 3 3 3 2 2
7 4 0 3 8 11 11 12 9 10 6 10 10 20 21 16 9 23 19 5 7 8 14 17 22 23 25 27 23 22 26 28 21 8 4 6 7 5 6 6 5 5 4 4 6 8 6 6 5 4 5 4 5 5 5 6 6 5 5 4 2 2 2 3 4 4 4 4 4 3 3 3 3 3 3 3 3 4 3 2 3 3 3 2 2 4
16 11 14 12 8 3 4 6 4 10 12 25 17 17 20 18 18 5 7 4 4 4 7 7 12 17 17 17 18 21 21 16 13 9 5 4 6 7 8 8 8 8 7 5 5 4 7 7 7 6 6 5 5 5 5 5 5 4 3 4 3 4 4 4 4 4 4 3 3 3 3 3 3 3 3 4 4 5 4 3 4 4 3 3 3 4
12 10 6 6 10 10 12 12 12 10 5 21 22 15 17 2 5 6 4 1 1 2 6 4 9 9 13 13 15 16 17 16 13 7 7 5 5 6 5 5 4 5 5 3 4 8 7 6 7 6 5 5 5 4 3 6 6 4 4 4 4 3 3 4 4 3 3 3 3 3 3 3 3 3 2 3 3 3 4 4 3 3 3 3 3 3
12 15 17 18 15 12 15 20 13 6 12 11 12 4 14 12 3 5 3 6 7 5 3 5 8 9 9 14 13 14 14 16 16 13 12 10 8 9 9 8 8 8 7 7 6 7 5 7 10 8 7 5 6 5 3 3 6 5 4 3 2 2 2 3 3 3 3 3 3 3 2 2 2 2 2 3 3 4 4 4 4 5 3 4 4 5
24 24 9 4 9 14 11 5 2 4 5 13 13 10 16 16 8 4 3 8 6 6 9 8 6 6 10 10 12 11 13 13 13 8 8 8 9 6 5 6 4 5 6 6 6 6 3 4 5 6 7 6 6 5 3 3 4 6 3 3 3 3 3 4 4 4 4 3 3 3 3 3 2 2 2 2 2 3 3 5 5 4 4 4 3 4
8 14 12 11 10 15 14 19 19 9 7 10 10 4 4 14 14 5 1 3 1 3 8 4 7 11 12 12 12 13 14 12 8 8 7 7 9 8 8 9 8 7 9 9 7 6 5 6 6 6 7 6 3 4 3 3 3 3 3 3 3 4 5 5 5 5 4 3 3 3 2 2 2 2 2 2 2 2 2 3 4 4 4 4 4 4
7 15 14 15 9 16 20 22 20 8 8 10 12 11 9 11 9 3 3 1 1 1 3 3 1 2 3 7 12 11 11 6 7 8 9 8 8 8 9 10 10 8 5 6 7 5 5 6 7 7 7 6 6 4 4 4 4 3 3 3 4 5 5 5 4 4 3 3 2 2 2 1 3 2 1 2 2 2 2 3 4 4 5 6 6 6
5 15 10 13 14 15 19 5 8 15 14 16 16 13 2 2 5 4 4 4 4 5 5 2 1 2 5 10 8 8 6 6 7 8 10 8 8 8 11 11 10 10 9 7 5 5 7 6 7 6 7 6 4 4 4 4 3 3 3 3 3 4 5 5 5 5 4 3 2 2 1 0 1 1 0 1 1 2 2 2 3 3 3 3 3 4
11 15 16 13 11 15 17 22 19 13 15 18 15 10 4 4 5 9 10 10 9 8 6 5 3 2 3 3 5 7 9 7 7 9 11 11 11 10 9 9 8 9 7 6 5 4 5 6 7 8 8 5 4 4 4 4 4 3 3 3 2 3 6 6 5 4 3 2 2 2 1 0 0 0 0 0 0 1 2 3 3 3 2 2 3 7
16 20 14 13 17 17 25 23 11 12 9 4 10 12 13 9 7 8 11 13 10 8 9 10 8 5 6 5 3 6 7 8 9 8 9 8 7 7 7 10 11 8 6 5 7 7 7 6 7 8 8 5 3 4 5 5 4 4 3 2 2 3 5 5 4 3 3 2 2 2 1 1 0 0 0 0 1 1 2 2 2 5 6 5 5 5
Wind_Direction
153 166 188 186 182 179 182 192 204 221 230 240 225 214 226 229 246 183 170 136 162 232 237 235 242 249 251 238 247 250 206 210 225 237 241 240 239 233 225 223 221 220 225 212 208 194 194 193 193 194 194 196 198 203 203 203 206 208 208 205 211 209 210 211 210 211 201 202 212 221 221 221 220 203 207 224 227 233 228 225 222 219 216 226 216 204
190 190 198 181 179 176 184 193 208 225 223 240 214 218 220 220 246 190 187 147 167 221 247 229 244 251 251 247 246 247 228 220 227 233 236 242 242 236 228 228 218 220 211 193 185 191 191 194 193 192 194 194 196 202 204 205 204 205 206 208 208 207 207 209 211 210 209 206 206 205 212 217 218 207 204 216 217 223 227 222 218 219 220 221 223 210
202 208 182 179 173 183 194 202 214 224 218 226 227 203 233 220 221 79 150 170 174 224 253 245 248 255 252 249 248 247 248 247 238 234 237 238 238 238 232 231 225 210 215 202 200 191 194 194 193 193 197 200 204 201 203 205 204 205 207 210 207 206 205 204 208 210 213 210 207 209 211 212 216 217 209 212 213 212 219 219 216 219 223 222 223 218
198 209 194 179 178 189 198 204 211 220 220 223 217 221 218 217 200 218 190 183 197 220 300 351 304 275 268 257 251 244 241 246 241 235 236 230 235 235 234 229 221 223 220 219 211 201 198 194 194 198 202 204 203 205 205 204 206 205 207 207 206 206 204 204 201 206 214 213 212 216 220 216 219 219 211 207 214 216 220 224 221 221 224 224 224 223
192 177 183 181 187 192 195 200 207 211 217 222 227 226 227 201 207 281 113 202 194 238 272 276 274 267 250 249 240 234 232 240 240 238 231 226 229 240 246 239 222 230 224 229 231 211 193 191 196 199 203 200 202 205 205 202 203 205 205 203 201 203 204 205 203 197 204 209 214 220 220 228 223 226 222 212 217 219 222 224 225 225 218 222 225 223
188 162 167 185 192 195 199 198 207 203 219 218 222 230 230 222 235 160 152 202 233 230 182 262 286 273 237 229 233 230 219 225 228 230 220 215 216 218 228 228 224 227 231 234 233 223 199 195 198 201 200 200 205 207 209 203 205 206 205 201 200 202 202 204 204 196 195 206 210 207 212 212 218 223 218 215 216 218 221 222 222 225 219 218 219 220
191 165 175 189 190 194 201 207 196 203 220 220 213 210 237 247 238 206 219 219 255 261 101 268 240 276 335 308 260 230 231 234 224 215 215 216 217 214 211 214 216 213 218 221 235 230 215 204 196 197 199 204 206 212 205 205 209 208 206 203 201 202 203 201 201 195 191 201 205 206 209 211 213 220 226 223 221 226 226 223 219 219 218 216 212 216
170 177 187 189 190 194 198 209 197 199 212 224 44 183 211 225 212 213 236 245 276 6 249 193 265 282 289 264 249 225 225 236 235 229 216 213 212 215 210 206 205 207 206 200 213 217 217 214 203 204 205 204 213 208 200 206 208 208 208 204 203 204 204 202 198 197 195 197 200 203 208 212 217 217 222 217 219 223 230 227 218 208 210 201 212 219
167 170 181 186 193 192 206 198 179 192 209 194 114 152 193 204 206 216 231 247 307 355 277 175 144 260 255 268 194 220 229 223 231 232 232 228 217 215 213 211 205 204 203 202 202 209 208 209 212 214 208 206 208 201 202 205 208 210 211 210 208 208 206 204 198 199 199 199 200 201 204 211 215 218 222 224 218 217 220 227 221 215 212 207 209 219
233 182 180 184 186 203 196 195 197 185 202 52 177 126 133 143 100 177 234 267 265 257 250 221 169 253 269 263 256 219 227 235 236 238 233 229 223 216 215 214 212 211 210 211 210 211 205 204 207 212 214 210 202 194 198 205 205 207 208 210 211 212 209 206 205 202 204 202 202 207 209 210 210 207 215 218 219 218 217 220 220 218 213 211 211 212
128 19 192 182 203 192 183 199 189 189 186 123 128 126 121 137 162 156 280 301 272 251 250 220 203 235 291 251 235 214 236 221 234 240 241 236 230 224 214 207 206 209 193 167 206 228 225 218 213 184 200 211 205 182 196 202 206 206 208 212 214 218 216 214 212 205 206 206 205 211 212 212 212 208 207 211 220 221 218 217 213 214 214 212 214 208
134 152 173 201 12 202 144 80 43 130 136 158 151 151 134 100 137 180 168 191 241 252 45 195 203 189 236 204 228 230 79 200 229 242 242 241 242 238 216 203 198 169 146 160 186 218 223 226 225 219 224 216 210 203 201 207 207 211 213 213 220 220 218 216 212 210 210 209 211 213 212 213 214 212 209 211 213 213 218 215 214 212 214 214 211 210
163 184 165 113 271 166 148 145 129 147 170 179 163 169 172 162 143 229 209 221 224 253 115 76 159 232 239 242 258 223 236 227 228 240 243 245 251 249 245 99 85 95 119 168 195 202 201 209 211 208 217 205 204 208 206 205 204 211 216 216 218 221 215 215 210 211 210 210 213 211 212 214 215 217 217 215 216 212 214 214 216 215 215 213 210 207
142 112 56 156 176 226 175 173 154 161 198 176 183 179 182 182 181 243 221 243 271 144 130 143 78 262 298 280 222 247 246 241 235 237 243 252 257 283 15 327 136 166 197 209 210 211 213 208 206 205 204 195 193 200 199 204 205 203 213 217 221 225 217 214 214 213 212 213 213 212 214 215 214 222 223 225 221 214 214 213 218 221 219 216 216 208
141 197 222 164 199 190 202 204 170 137 144 184 192 184 198 187 185 217 204 211 229 116 131 135 141 249 202 87 353 301 308 262 255 280 307 337 312 290 293 276 262 250 235 211 209 211 219 216 211 206 198 197 191 190 193 197 203 203 211 210 215 220 217 215 215 213 215 215 215 213 213 215 216 221 226 229 228 223 220 215 221 223 222 221 218 212
182 109 111 170 41 166 195 206 133 134 151 185 192 210 220 220 245 275 15 290 147 163 177 187 222 262 237 8 267 250 254 245 249 249 237 247 238 239 261 256 242 248 246 204 196 211 219 219 223 218 209 197 193 193 191 194 192 199 209 209 214 214 213 214 213 215 214 215 215 215 216 218 222 226 231 231 226 227 218 215 219 222 224 220 217 213
169 191 134 123 330 180 185 188 164 150 181 176 189 205 205 11 229 240 176 126 350 297 253 156 252 252 267 266 260 251 234 239 232 225 214 230 229 224 243 243 231 228 234 226 237 248 243 230 216 224 232 225 203 187 192 187 190 196 201 206 211 212 213 216 214 216 215 217 217 217 216 219 223 227 230 233 231 226 228 220 213 221 225 219 213 212
175 131 350 147 155 180 11 247 171 183 42 140 206 198 89 37 4 245 230 140 230 248 256 154 227 243 187 286 189 205 220 228 220 211 219 221 216 219 231 229 225 224 209 213 244 246 237 233 238 224 203 206 189 173 174 188 191 198 206 204 206 207 211 214 217 219 220 219 221 219 218 220 223 227 229 232 236 231 228 227 222 218 220 203 202 210
155 94 173 326 161 115 196 139 187 185 347 206 186 148 155 195 219 209 276 248 207 231 261 225 220 240 230 224 125 196 220 232 235 231 229 211 199 219 232 235 225 153 192 229 232 227 217 209 218 220 200 167 172 182 193 183 185 202 213 214 212 206 208 209 209 213 215 225 221 226 229 225 225 228 233 234 236 240 231 220 211 210 209 194 199 193
172 121 130 337 161 142 155 180 188 190 164 352 6 200 215 320 223 188 207 302 240 249 244 266 145 260 197 223 202 191 193 209 208 222 227 231 211 209 213 226 241 223 263 253 260 266 258 245 229 201 179 177 177 176 176 180 177 206 220 215 229 252 229 203 201 191 198 217 233 233 242 238 235 233 234 237 234 232 230 222 216 214 211 202 192 192
171 154 147 148 132 144 185 196 204 184 178 181 192 196 181 217 10 316 234 218 215 255 246 274 260 251 206 184 200 200 185 181 179 178 193 224 211 188 197 216 196 251 264 263 257 269 263 247 188 176 166 123 94 75 78 105 149 118 123 162 194 211 208 213 224 208 197 208 216 223 224 221 216 219 217 226 225 228 226 217 197 204 203 187 200 187
156 179 142 139 169 195 203 186 286 202 191 192 190 200 193 181 185 193 229 188 227 219 247 240 254 307 105 201 191 207 216 244 257 268 244 198 153 181 177 174 188 232 238 232 259 267 277 267 202 142 116 93 112 136 165 173 183 192 192 192 175 195 204 201 204 221 220 220 225 222 223 225 228 223 222 222 222 220 218 220 208 204 200 205 198 189
144 120 124 161 180 184 157 24 62 16 326 206 196 205 196 202 205 218 231 201 164 238 28 312 320 293 120 165 169 170 186 169 87 169 221 197 94 136 150 147 179 226 244 278 282 287 248 222 209 157 161 173 183 179 172 169 183 185 190 193 203 211 218 220 221 214 215 220 225 229 230 228 229 228 223 223 219 218 216 214 208 195 201 198 190 191
78 117 104 101 90 65 70 114 13 12 4 200 214 216 202 205 200 206 216 47 206 187 215 239 248 247 97 107 151 142 79 65 66 46 24 18 350 313 294 296 274 251 105 121 167 225 229 198 179 208 211 203 192 190 184 177 172 182 202 209 207 212 218 220 226 230 232 233 235 232 226 227 230 230 225 223 221 219 214 210 207 196 200 192 182 187
169 187 134 128 130 148 170 122 203 201 231 221 207 203 212 214 208 211 55 147 259 215 216 208 243 238 169 67 160 340 207 212 156 144 173 256 266 265 248 232 266 314 340 310 170 162 166 198 210 216 214 205 194 182 177 175 177 185 202 208 213 219 213 213 218 227 234 238 243 242 241 239 235 235 238 236 230 227 217 210 199 193 194 180 186 190
21 148 159 162 168 172 181 194 194 194 206 208 222 198 203 211 201 152 210 213 239 214 183 219 251 265 89 232 210 213 220 214 175 148 207 233 245 165 131 201 247 319 313 358 171 191 215 211 210 210 206 201 194 180 174 174 175 191 202 213 215 216 213 216 216 221 231 236 238 242 240 242 240 238 239 241 239 232 222 211 203 199 199 186 188 184
163 164 186 178 178 193 191 89 65 79 99 189 198 210 187 181 211 208 213 221 228 214 210 223 242 260 200 205 208 206 208 216 192 168 193 218 216 198 219 237 242 266 288 285 254 234 242 234 225 218 208 199 189 180 177 179 189 195 201 214 218 218 218 217 211 215 224 231 238 240 238 240 242 238 239 237 236 224 213 216 216 200 204 200 188 176
113 187 196 197 206 200 178 131 148 152 169 187 185 188 181 187 198 203 199 218 216 217 250 234 226 235 231 182 197 198 200 209 211 178 191 209 233 219 200 198 194 212 211 201 219 217 222 231 231 213 202 189 187 177 185 197 200 198 195 204 206 213 218 218 215 216 218 220 225 232 237 237 245 265 309 347 25 51 119 83 125 188 133 150 169 180
168 202 192 200 210 202 204 179 155 164 183 182 180 181 188 187 199 205 218 229 205 208 226 236 218 234 230 198 199 191 194 196 203 184 174 123 122 159 182 223 206 187 186 204 232 221 201 211 220 213 198 184 174 189 201 201 208 205 200 197 194 195 213 214 210 213 218 217 226 229 232 231 209 56 69 93 118 136 150 148 140 132 146 164 173 172
166 224 193 199 206 206 192 183 168 178 178 177 183 189 189 188 199 207 222 228 220 226 235 244 184 224 223 207 203 188 186 192 132 79 98 159 173 179 194 228 208 193 190 205 225 221 207 202 203 196 172 177 197 201 203 205 203 204 196 193 192 193 205 205 210 211 212 217 226 229 209 156 149 168 160 169 169 179 158 156 154 153 159 169 163 156
190 204 191 186 208 210 195 209 194 183 170 187 190 190 190 193 200 208 216 225 221 232 240 244 252 260 229 221 217 204 185 99 123 158 184 182 168 211 215 219 227 229 213 209 211 226 220 197 183 160 182 202 204 206 208 199 195 193 200 195 185 189 195 203 212 209 213 221 219 215 190 171 165 153 184 182 161 150 162 166 163 164 155 147 142 146
195 210 179 181 205 210 181 175 187 180 181 190 192 192 193 194 204 209 218 217 203 221 235 243 253 250 224 182 211 214 198 168 225 222 195 181 211 221 224 231 235 241 241 229 227 220 221 219 192 183 205 215 195 186 193 193 195 187 205 189 187 180 182 204 217 218 215 218 210 209 197 184 164 176 190 170 179 170 175 152 152 158 154 148 155 159
186 180 176 185 204 209 151 153 143 109 95 214 209 197 196 200 202 212 226 228 214 216 222 221 233 235 121 179 203 205 217 220 226 229 233 213 211 207 214 223 233 238 240 238 237 235 231 223 216 222 240 261 209 154 177 183 188 198 195 185 179 156 172 210 217 221 219 194 193 196 190 186 179 190 193 198 186 166 138 159 161 161 168 180 167 149
184 187 179 171 207 119 123 128 124 147 213 222 214 202 190 194 199 210 218 220 220 216 225 223 232 173 197 194 201 209 210 216 216 222 230 248 250 260 273 262 249 237 234 234 236 243 252 243 233 224 226 229 166 169 163 173 184 179 165 165 157 163 177 200 214 220 211 180 192 190 192 190 187 193 188 154 140 139 168 186 204 184 148 123 127 165
182 185 201 163 196 170 153 122 155 208 224 239 90 154 196 198 199 213 225 226 225 221 227 236 235 233 187 191 193 212 217 218 221 228 228 231 242 245 243 244 240 233 223 215 218 224 227 228 218 200 209 207 193 161 159 175 177 151 145 161 164 169 175 194 207 217 208 188 190 185 174 173 181 190 167 152 142 143 169 188 199 169 171 165 176 180
176 182 172 193 147 83 166 172 199 225 231 77 138 161 174 194 211 214 236 237 230 222 219 230 232 224 216 198 199 209 219 213 218 224 225 224 223 231 239 241 243 229 212 213 223 231 233 225 213 212 217 150 145 174 183 170 157 150 157 156 170 168 177 186 203 209 203 191 184 181 174 172 180 174 165 157 164 173 186 187 188 184 179 170 178 150
177 176 181 180 163 176 182 183 215 347 8 167 253 189 171 199 195 196 228 245 234 229 222 230 231 218 220 212 147 95 101 125 242 241 226 224 227 229 230 238 240 237 234 231 224 231 213 184 184 185 151 157 179 175 171 138 134 140 141 152 167 164 171 190 204 207 201 195 183 176 173 176 172 170 164 162 168 183 190 190 189 176 163 173 182 172
230 191 171 171 199 181 173 193 221 248 254 230 215 195 185 176 182 198 215 259 222 214 218 224 227 214 213 197 138 138 104 80 270 256 229 217 223 232 237 239 244 245 240 236 186 130 139 145 132 138 169 173 179 155 121 130 139 144 147 158 161 163 170 193 212 211 208 196 181 176 174 174 175 172 171 163 183 190 196 192 190 184 180 191 185 191
346 318 209 189 154 179 183 177 194 211 233 235 214 173 187 192 131 114 198 260 241 200 200 210 221 205 203 186 159 135 180 227 246 252 255 213 215 227 238 233 226 234 234 227 204 196 170 168 164 154 152 165 190 160 136 138 144 148 156 161 161 166 182 194 203 205 207 203 182 179 175 175 178 176 177 186 193 186 188 190 192 148 159 205 200 205
247 197 127 221 188 188 160 184 207 198 237 243 202 193 177 157 133 115 218 249 250 178 201 202 212 202 203 170 164 186 186 226 239 246 258 216 205 205 215 225 225 220 226 191 170 170 156 139 134 155 182 193 191 137 148 147 152 160 158 158 153 177 198 191 191 198 202 199 185 166 161 159 165 170 177 196 189 184 193 148 133 157 180 169 151 162
200 199 205 196 184 198 193 210 237 254 246 146 165 154 153 135 151 181 202 237 135 152 199 202 206 201 188 179 178 193 211 217 230 239 91 137 147 179 162 179 176 176 185 168 171 138 151 167 179 187 186 179 148 138 150 149 147 151 151 139 152 191 192 164 163 173 187 195 178 158 168 164 162 176 179 175 170 155 127 163 163 160 178 181 177 173
185 159 45 209 203 191 196 204 225 256 248 114 134 140 138 141 183 208 221 83 120 165 199 194 193 189 187 192 194 202 218 220 223 73 121 135 175 158 150 137 123 91 59 57 121 154 157 154 156 129 115 111 126 132 137 142 144 140 129 134 155 136 129 137 151 160 167 173 173 176 166 161 140 157 167 150 146 155 156 140 137 161 168 182 184 190
177 176 190 195 188 201 196 217 258 261 216 158 147 142 163 185 212 188 83 50 9 162 145 190 193 198 194 209 211 217 230 231 226 207 156 155 140 159 152 158 165 164 159 149 153 176 151 152 160 161 141 125 127 128 133 137 138 121 124 144 140 136 137 146 145 147 155 154 155 153 146 143 146 157 153 157 160 162 158 132 144 147 158 181 166 183
167 184 173 204 181 175 191 198 215 226 13 132 152 186 193 194 38 137 117 78 299 188 171 146 203 188 197 203 207 218 227 233 233 198 176 168 143 120 137 144 153 146 137 116 130 159 171 152 147 132 117 117 111 112 115 135 136 141 149 149 135 131 130 138 139 136 132 134 126 121 134 140 142 149 161 159 153 136 139 144 146 155 177 172 169 181
177 197 178 189 187 194 193 210 206 79 164 167 167 133 176 209 237 287 177 147 161 228 205 190 186 192 181 194 202 207 221 225 228 210 196 190 167 157 162 176 166 164 154 150 135 143 168 163 157 137 113 100 96 94 104 123 139 143 144 124 115 124 122 108 101 108 107 105 107 112 102 113 135 139 133 144 155 169 172 151 157 185 191 175 188 194
190 200 190 226 205 214 246 237 100 215 198 196 192 174 181 202 216 199 208 157 206 174 172 176 191 173 194 193 196 213 215 220 219 201 186 173 179 165 123 121 114 107 103 99 114 147 142 119 115 124 116 92 92 94 104 104 127 133 138 117 116 112 106 107 107 101 98 98 102 101 110 119 107 116 126 153 180 192 182 187 186 191 184 185 190 194
189 188 196 214 177 184 232 225 230 214 173 207 222 227 234 200 211 178 10 354 57 145 188 236 175 189 188 193 199 206 215 213 195 189 174 166 175 177 163 157 154 156 153 160 149 136 130 141 136 133 124 113 108 105 109 104 89 87 90 101 103 102 114 111 111 106 102 103 105 99 110 135 162 156 142 184 189 198 193 185 191 194 192 186 196 198
219 183 200 211 194 201 225 221 217 179 189 209 213 211 222 230 212 104 153 133 340 321 227 225 29 226 188 208 208 205 218 199 188 181 174 173 174 171 173 168 161 147 128 125 133 151 138 145 146 138 130 116 113 114 113 111 99 84 84 90 96 113 111 108 105 109 100 101 102 113 130 161 110 128 166 181 196 203 204 192 196 205 204 195 194 199
145 149 210 194 217 229 249 268 185 205 203 212 211 209 130 112 215 216 191 168 164 208 225 247 331 272 205 214 199 200 203 203 188 173 164 168 164 176 186 179 167 158 138 143 150 160 156 149 134 130 121 112 114 115 111 99 94 83 87 95 109 124 118 110 96 90 93 95 99 86 107 150 122 204 210 171 202 241 239 219 212 222 244 226 214 212
140 190 192 191 213 228 223 219 192 193 218 218 204 194 199 227 195 220 225 218 201 194 186 185 236 295 268 241 197 191 200 189 172 159 173 179 179 172 160 151 142 133 128 131 119 112 100 108 125 125 120 113 121 115 106 97 83 70 64 76 92 115 112 112 105 97 92 88 88 88 89 85 87 116 325 338 257 271 288 356 1 325 290 279 236 249
190 195 182 193 199 219 225 225 195 224 261 59 175 197 207 208 194 212 224 227 225 205 190 180 177 204 206 220 244 191 188 178 179 167 162 169 153 130 117 134 140 138 117 117 104 100 102 100 101 97 99 94 90 76 80 75 65 63 56 61 68 96 108 109 109 104 109 112 103 82 86 91 87 95 349 354 340 324 313 301 242 225 261 279 319 321